QPF
0.01 0.01 0.01 0.00 0.00 0.01 0.01 0.01 0.01 0.01 0.01 0.01 0.01 0.01 0.00 0.00 0.01 0.02 0.02 0.01 0.01 0.01 0.01 0.01 0.00 0.01 0.01 0.01 0.01 0.01 0.01 0.01 0.01 0.02 0.02 0.03 0.02 0.02 0.02 0.02 0.03 0.03 0.03 0.02
0.01 0.01 0.01 0.01 0.00 0.00 0.01 0.01 0.00 0.01 0.01 0.01 0.01 0.00 0.00 0.00 0.01 0.01 0.01 0.01 0.00 0.00 0.00 0.01 0.00 0.00 0.01 0.01 0.02 0.02 0.01 0.01 0.01 0.01 0.02 0.02 0.03 0.02 0.01 0.01 0.01 0.01 0.02 0.02
0.01 0.00 0.00 0.00 0.00 0.00 0.00 0.01 0.01 0.01 0.01 0.01 0.01 0.01 0.00 0.00 0.00 0.00 0.01 0.01 0.00 0.00 0.01 0.01 0.00 0.00 0.00 0.01 0.02 0.04 0.02 0.02 0.02 0.02 0.02 0.02 0.02 0.02 0.02 0.01 0.01 0.01 0.01 0.01
0.01 0.01 0.00 0.00 0.00 0.00 0.00 0.00 0.01 0.00 0.01 0.01 0.01 0.01 0.00 0.00 0.00 0.00 0.00 0.01 0.01 0.01 0.01 0.01 0.01 0.00 0.00 0.01 0.02 0.04 0.04 0.04 0.02 0.02 0.02 0.02 0.02 0.01 0.01 0.01 0.01 0.01 0.01 0.02
0.00 0.00 0.00 0.00 0.00 0.00 0.01 0.01 0.00 0.00 0.00 0.00 0.00 0.01 0.00 0.00 0.00 0.00 0.01 0.02 0.01 0.01 0.01 0.01 0.01 0.01 0.01 0.01 0.02 0.03 0.03 0.04 0.04 0.03 0.02 0.02 0.02 0.02 0.02 0.01 0.01 0.01 0.01 0.01
0.00 0.00 0.00 0.00 0.00 0.00 0.01 0.01 0.00 0.00 0.01 0.00 0.00 0.01 0.01 0.00 0.00 0.01 0.00 0.01 0.02 0.03 0.03 0.02 0.01 0.01 0.01 0.01 0.01 0.02 0.02 0.02 0.03 0.03 0.03 0.02 0.01 0.01 0.01 0.01 0.01 0.01 0.00 0.01
0.00 0.00 0.00 0.00 0.01 0.01 0.01 0.01 0.02 0.01 0.01 0.00 0.00 0.00 0.01 0.00 0.00 0.00 0.01 0.01 0.02 0.03 0.02 0.02 0.01 0.01 0.01 0.01 0.00 0.01 0.03 0.02 0.02 0.02 0.02 0.02 0.02 0.02 0.02 0.02 0.02 0.01 0.01 0.01
0.00 0.00 0.00 0.00 0.01 0.02 0.02 0.02 0.03 0.02 0.01 0.00 0.00 0.01 0.00 0.00 0.00 0.00 0.01 0.01 0.03 0.04 0.01 0.01 0.01 0.01 0.01 0.01 0.01 0.01 0.02 0.03 0.03 0.03 0.02 0.02 0.02 0.02 0.02 0.01 0.01 0.01 0.01 0.01
0.00 0.00 0.00 0.00 0.01 0.01 0.02 0.03 0.03 0.02 0.01 0.01 0.01 0.01 0.00 0.01 0.01 0.01 0.01 0.01 0.02 0.01 0.00 0.00 0.01 0.01 0.01 0.01 0.01 0.01 0.01 0.02 0.02 0.03 0.02 0.01 0.01 0.01 0.01 0.01 0.00 0.01 0.01 0.02
0.00 0.00 0.00 0.00 0.00 0.01 0.02 0.02 0.04 0.04 0.02 0.01 0.01 0.01 0.01 0.01 0.01 0.00 0.01 0.00 0.01 0.01 0.01 0.01 0.01 0.02 0.02 0.01 0.01 0.01 0.01 0.01 0.01 0.02 0.02 0.01 0.01 0.01 0.01 0.01 0.01 0.01 0.01 0.01
0.00 0.00 0.00 0.00 0.00 0.01 0.01 0.02 0.03 0.04 0.02 0.02 0.01 0.01 0.01 0.01 0.01 0.01 0.00 0.00 0.01 0.01 0.01 0.02 0.03 0.03 0.02 0.01 0.01 0.01 0.01 0.01 0.01 0.02 0.02 0.01 0.01 0.01 0.01 0.01 0.01 0.01 0.01 0.01
0.00 0.00 0.00 0.00 0.00 0.00 0.01 0.01 0.02 0.03 0.02 0.02 0.02 0.01 0.01 0.01 0.01 0.01 0.01 0.01 0.00 0.00 0.01 0.01 0.01 0.00 0.00 0.01 0.01 0.01 0.01 0.01 0.02 0.02 0.02 0.01 0.01 0.01 0.01 0.01 0.01 0.01 0.01 0.01
0.01 0.00 0.00 0.00 0.00 0.00 0.00 0.01 0.01 0.02 0.02 0.01 0.02 0.01 0.01 0.01 0.01 0.01 0.01 0.01 0.01 0.00 0.01 0.01 0.01 0.00 0.00 0.01 0.01 0.01 0.01 0.02 0.02 0.02 0.01 0.01 0.01 0.01 0.01 0.01 0.01 0.01 0.01 0.01
0.00 0.00 0.00 0.00 0.00 0.00 0.00 0.00 0.01 0.02 0.02 0.01 0.01 0.01 0.01 0.01 0.01 0.01 0.01 0.01 0.01 0.01 0.01 0.01 0.01 0.00 0.00 0.01 0.01 0.01 0.02 0.02 0.02 0.02 0.02 0.01 0.01 0.01 0.01 0.02 0.02 0.01 0.01 0.01
0.00 0.00 0.00 0.00 0.01 0.00 0.00 0.00 0.01 0.02 0.02 0.01 0.01 0.01 0.02 0.02 0.02 0.01 0.01 0.01 0.01 0.01 0.01 0.01 0.00 0.00 0.01 0.01 0.01 0.02 0.02 0.02 0.02 0.03 0.02 0.01 0.01 0.01 0.01 0.02 0.03 0.02 0.01 0.01
0.00 0.00 0.00 0.00 0.00 0.00 0.00 0.00 0.01 0.02 0.01 0.00 0.00 0.01 0.02 0.02 0.01 0.01 0.01 0.01 0.01 0.00 0.00 0.00 0.00 0.00 0.01 0.02 0.03 0.03 0.03 0.03 0.02 0.02 0.02 0.01 0.01 0.01 0.01 0.01 0.02 0.03 0.02 0.01
0.00 0.00 0.00 0.01 0.00 0.00 0.01 0.00 0.01 0.02 0.01 0.01 0.01 0.02 0.02 0.03 0.02 0.02 0.01 0.01 0.01 0.01 0.01 0.01 0.00 0.00 0.01 0.02 0.02 0.03 0.04 0.04 0.03 0.02 0.02 0.01 0.01 0.02 0.02 0.02 0.02 0.02 0.02 0.02
0.00 0.00 0.00 0.00 0.00 0.01 0.01 0.00 0.01 0.01 0.01 0.01 0.01 0.01 0.02 0.02 0.02 0.02 0.02 0.02 0.01 0.01 0.01 0.01 0.01 0.01 0.02 0.02 0.02 0.02 0.02 0.03 0.04 0.02 0.02 0.01 0.01 0.02 0.03 0.03 0.02 0.01 0.01 0.01
0.00 0.00 0.01 0.01 0.01 0.01 0.00 0.00 0.00 0.01 0.01 0.01 0.01 0.01 0.01 0.02 0.02 0.01 0.01 0.01 0.01 0.01 0.01 0.02 0.01 0.01 0.02 0.01 0.02 0.02 0.02 0.02 0.02 0.02 0.02 0.02 0.02 0.02 0.04 0.05 0.03 0.02 0.01 0.01
0.00 0.00 0.01 0.01 0.01 0.01 0.00 0.00 0.00 0.01 0.01 0.01 0.01 0.01 0.01 0.01 0.02 0.01 0.01 0.01 0.01 0.01 0.01 0.02 0.01 0.01 0.01 0.01 0.01 0.02 0.02 0.02 0.01 0.01 0.02 0.02 0.02 0.02 0.03 0.06 0.07 0.04 0.03 0.02
0.00 0.01 0.01 0.02 0.02 0.01 0.00 0.00 0.00 0.01 0.01 0.00 0.00 0.00 0.00 0.00 0.01 0.01 0.00 0.01 0.01 0.01 0.01 0.01 0.01 0.01 0.01 0.01 0.01 0.02 0.03 0.02 0.02 0.01 0.02 0.02 0.02 0.02 0.02 0.05 0.08 0.07 0.06 0.04
0.01 0.01 0.01 0.01 0.02 0.02 0.00 0.00 0.01 0.01 0.00 0.00 0.00 0.00 0.00 0.00 0.00 0.00 0.00 0.00 0.00 0.00 0.00 0.01 0.01 0.01 0.01 0.02 0.02 0.02 0.02 0.03 0.02 0.02 0.01 0.01 0.02 0.02 0.02 0.04 0.06 0.07 0.07 0.06
0.01 0.01 0.01 0.01 0.02 0.01 0.01 0.00 0.00 0.00 0.00 0.00 0.00 0.00 0.00 0.00 0.00 0.00 0.00 0.00 0.00 0.00 0.00 0.01 0.01 0.01 0.01 0.02 0.02 0.02 0.02 0.03 0.03 0.03 0.02 0.02 0.02 0.02 0.02 0.03 0.04 0.05 0.06 0.05
0.01 0.01 0.01 0.01 0.01 0.01 0.00 0.00 0.00 0.00 0.00 0.00 0.00 0.00 0.00 0.00 0.00 0.00 0.00 0.00 0.00 0.00 0.00 0.01 0.01 0.02 0.01 0.01 0.01 0.01 0.02 0.02 0.03 0.03 0.03 0.03 0.03 0.03 0.03 0.03 0.03 0.03 0.03 0.04
0.01 0.01 0.01 0.01 0.00 0.00 0.00 0.00 0.00 0.00 0.00 0.00 0.00 0.00 0.00 0.00 0.00 0.00 0.00 0.00 0.00 0.00 0.00 0.00 0.01 0.02 0.02 0.01 0.01 0.01 0.01 0.01 0.02 0.02 0.03 0.04 0.04 0.03 0.03 0.02 0.02 0.02 0.02 0.03
0.00 0.00 0.00 0.00 0.00 0.00 0.00 0.00 0.00 0.00 0.00 0.00 0.00 0.00 0.00 0.00 0.00 0.00 0.00 0.00 0.00 0.00 0.01 0.01 0.01 0.01 0.02 0.01 0.01 0.01 0.01 0.01 0.01 0.02 0.03 0.04 0.04 0.03 0.03 0.02 0.02 0.03 0.03 0.04
MSLP
1011.00 1011.63 1012.16 1012.58 1012.88 1013.10 1013.25 1013.37 1013.45 1013.51 1013.52 1013.48 1013.38 1013.21 1012.99 1012.74 1012.51 1012.34 1012.25 1012.26 1012.37 1012.58 1012.83 1013.11 1013.37 1013.59 1013.75 1013.87 1013.95 1014.03 1014.13 1014.27 1014.46 1014.69 1014.94 1015.20 1015.43 1015.60 1015.69 1015.70 1015.63 1015.50 1015.34 1015.15
1011.41 1011.93 1012.33 1012.62 1012.83 1012.98 1013.10 1013.22 1013.33 1013.41 1013.45 1013.41 1013.27 1013.05 1012.76 1012.43 1012.14 1011.91 1011.80 1011.83 1012.00 1012.28 1012.63 1012.99 1013.33 1013.60 1013.79 1013.92 1014.00 1014.07 1014.17 1014.33 1014.55 1014.83 1015.15 1015.47 1015.76 1015.99 1016.14 1016.19 1016.16 1016.06 1015.93 1015.78
1011.67 1012.06 1012.33 1012.52 1012.65 1012.77 1012.89 1013.04 1013.20 1013.33 1013.39 1013.34 1013.17 1012.88 1012.49 1012.06 1011.66 1011.36 1011.22 1011.25 1011.45 1011.80 1012.24 1012.69 1013.11 1013.44 1013.68 1013.82 1013.91 1013.99 1014.09 1014.26 1014.52 1014.84 1015.22 1015.61 1015.97 1016.26 1016.45 1016.56 1016.57 1016.52 1016.43 1016.33
1011.79 1012.05 1012.22 1012.33 1012.43 1012.55 1012.72 1012.93 1013.16 1013.35 1013.44 1013.39 1013.16 1012.77 1012.26 1011.69 1011.16 1010.76 1010.54 1010.55 1010.77 1011.17 1011.68 1012.21 1012.71 1013.11 1013.40 1013.58 1013.69 1013.78 1013.91 1014.11 1014.40 1014.77 1015.20 1015.65 1016.07 1016.42 1016.68 1016.83 1016.90 1016.90 1016.86 1016.81
1011.80 1011.96 1012.06 1012.13 1012.24 1012.41 1012.66 1012.97 1013.29 1013.56 1013.68 1013.61 1013.32 1012.81 1012.15 1011.42 1010.73 1010.19 1009.87 1009.82 1010.02 1010.44 1011.00 1011.61 1012.18 1012.65 1013.00 1013.23 1013.38 1013.50 1013.66 1013.90 1014.23 1014.65 1015.14 1015.65 1016.13 1016.54 1016.85 1017.06 1017.18 1017.22 1017.23 1017.23
1011.75 1011.85 1011.91 1011.98 1012.13 1012.39 1012.75 1013.18 1013.61 1013.95 1014.10 1014.01 1013.64 1013.01 1012.19 1011.28 1010.42 1009.72 1009.28 1009.13 1009.29 1009.71 1010.29 1010.94 1011.57 1012.11 1012.52 1012.81 1013.01 1013.19 1013.39 1013.68 1014.06 1014.54 1015.08 1015.64 1016.18 1016.64 1017.00 1017.26 1017.42 1017.51 1017.56 1017.59
1011.68 1011.74 1011.79 1011.90 1012.13 1012.48 1012.97 1013.52 1014.05 1014.46 1014.65 1014.53 1014.09 1013.34 1012.37 1011.29 1010.26 1009.40 1008.82 1008.58 1008.67 1009.04 1009.62 1010.30 1010.96 1011.55 1012.01 1012.36 1012.62 1012.86 1013.12 1013.46 1013.90 1014.44 1015.03 1015.65 1016.23 1016.74 1017.15 1017.44 1017.64 1017.77 1017.85 1017.91
1011.62 1011.66 1011.73 1011.89 1012.19 1012.64 1013.24 1013.90 1014.52 1014.99 1015.19 1015.05 1014.55 1013.70 1012.61 1011.39 1010.22 1009.22 1008.52 1008.17 1008.18 1008.50 1009.05 1009.72 1010.39 1011.01 1011.51 1011.92 1012.24 1012.54 1012.87 1013.27 1013.77 1014.35 1015.00 1015.66 1016.29 1016.84 1017.28 1017.61 1017.84 1017.99 1018.10 1018.18
1011.58 1011.61 1011.69 1011.89 1012.26 1012.79 1013.46 1014.19 1014.87 1015.37 1015.58 1015.42 1014.87 1013.97 1012.80 1011.50 1010.23 1009.15 1008.35 1007.92 1007.85 1008.11 1008.60 1009.23 1009.89 1010.51 1011.04 1011.48 1011.85 1012.21 1012.60 1013.07 1013.63 1014.27 1014.96 1015.66 1016.32 1016.90 1017.38 1017.74 1018.00 1018.18 1018.31 1018.41
1011.54 1011.56 1011.66 1011.89 1012.28 1012.85 1013.55 1014.30 1014.98 1015.47 1015.67 1015.50 1014.93 1014.01 1012.83 1011.51 1010.22 1009.11 1008.27 1007.78 1007.65 1007.84 1008.26 1008.83 1009.45 1010.04 1010.57 1011.03 1011.45 1011.86 1012.32 1012.85 1013.46 1014.15 1014.89 1015.62 1016.32 1016.93 1017.43 1017.82 1018.11 1018.33 1018.49 1018.62
1011.50 1011.51 1011.60 1011.83 1012.21 1012.76 1013.42 1014.13 1014.76 1015.22 1015.38 1015.20 1014.64 1013.75 1012.61 1011.35 1010.12 1009.04 1008.21 1007.71 1007.54 1007.67 1008.02 1008.51 1009.06 1009.60 1010.11 1010.57 1011.01 1011.47 1011.98 1012.57 1013.24 1013.98 1014.76 1015.52 1016.24 1016.88 1017.41 1017.84 1018.17 1018.43 1018.64 1018.81
1011.45 1011.45 1011.52 1011.71 1012.04 1012.51 1013.09 1013.69 1014.23 1014.60 1014.72 1014.52 1014.00 1013.18 1012.14 1011.00 1009.88 1008.90 1008.15 1007.67 1007.49 1007.56 1007.83 1008.23 1008.70 1009.17 1009.63 1010.08 1010.54 1011.04 1011.60 1012.25 1012.97 1013.76 1014.57 1015.37 1016.12 1016.78 1017.34 1017.81 1018.19 1018.50 1018.77 1018.99
1011.41 1011.39 1011.43 1011.56 1011.80 1012.16 1012.59 1013.05 1013.45 1013.71 1013.76 1013.54 1013.06 1012.34 1011.45 1010.48 1009.53 1008.69 1008.05 1007.64 1007.46 1007.49 1007.69 1008.00 1008.36 1008.76 1009.16 1009.59 1010.06 1010.58 1011.19 1011.89 1012.67 1013.50 1014.35 1015.18 1015.95 1016.64 1017.24 1017.74 1018.18 1018.55 1018.87 1019.16
1011.39 1011.35 1011.35 1011.40 1011.53 1011.74 1012.01 1012.29 1012.52 1012.65 1012.61 1012.39 1011.96 1011.36 1010.63 1009.85 1009.10 1008.45 1007.95 1007.62 1007.46 1007.46 1007.59 1007.80 1008.07 1008.38 1008.73 1009.12 1009.58 1010.14 1010.79 1011.54 1012.37 1013.24 1014.13 1014.98 1015.77 1016.49 1017.11 1017.66 1018.14 1018.57 1018.96 1019.31
1011.38 1011.33 1011.29 1011.26 1011.28 1011.34 1011.42 1011.52 1011.58 1011.56 1011.44 1011.20 1010.83 1010.35 1009.80 1009.23 1008.69 1008.22 1007.86 1007.63 1007.51 1007.49 1007.55 1007.67 1007.85 1008.07 1008.35 1008.71 1009.17 1009.75 1010.44 1011.23 1012.11 1013.02 1013.93 1014.81 1015.62 1016.35 1016.99 1017.57 1018.09 1018.57 1019.01 1019.43
1011.39 1011.33 1011.25 1011.15 1011.06 1010.98 1010.90 1010.82 1010.72 1010.58 1010.38 1010.12 1009.80 1009.44 1009.05 1008.68 1008.34 1008.06 1007.84 1007.69 1007.61 1007.58 1007.58 1007.62 1007.71 1007.85 1008.08 1008.40 1008.86 1009.45 1010.17 1011.01 1011.91 1012.86 1013.79 1014.68 1015.50 1016.23 1016.89 1017.48 1018.03 1018.54 1019.03 1019.49
1011.40 1011.33 1011.22 1011.06 1010.88 1010.68 1010.47 1010.25 1010.01 1009.77 1009.51 1009.24 1008.98 1008.72 1008.48 1008.28 1008.11 1007.99 1007.90 1007.83 1007.78 1007.73 1007.69 1007.66 1007.67 1007.75 1007.92 1008.22 1008.66 1009.26 1010.01 1010.87 1011.81 1012.77 1013.71 1014.60 1015.42 1016.15 1016.80 1017.40 1017.95 1018.49 1019.00 1019.49
1011.36 1011.28 1011.15 1010.96 1010.72 1010.45 1010.15 1009.83 1009.50 1009.19 1008.89 1008.63 1008.41 1008.24 1008.12 1008.06 1008.04 1008.04 1008.05 1008.04 1008.01 1007.95 1007.87 1007.79 1007.74 1007.75 1007.88 1008.15 1008.59 1009.19 1009.95 1010.83 1011.78 1012.74 1013.69 1014.57 1015.37 1016.09 1016.73 1017.32 1017.87 1018.40 1018.92 1019.43
1011.25 1011.16 1011.01 1010.81 1010.55 1010.25 1009.91 1009.54 1009.18 1008.84 1008.53 1008.29 1008.11 1008.01 1007.99 1008.02 1008.10 1008.19 1008.27 1008.30 1008.29 1008.22 1008.10 1007.98 1007.88 1007.85 1007.95 1008.20 1008.63 1009.23 1009.99 1010.86 1011.81 1012.77 1013.70 1014.57 1015.35 1016.05 1016.67 1017.24 1017.78 1018.30 1018.82 1019.32
1011.05 1010.94 1010.79 1010.59 1010.35 1010.06 1009.73 1009.38 1009.02 1008.70 1008.41 1008.20 1008.06 1008.02 1008.05 1008.15 1008.29 1008.43 1008.54 1008.59 1008.58 1008.50 1008.36 1008.21 1008.08 1008.03 1008.10 1008.34 1008.75 1009.34 1010.09 1010.96 1011.89 1012.83 1013.74 1014.59 1015.34 1016.02 1016.62 1017.17 1017.69 1018.20 1018.71 1019.21
1010.76 1010.63 1010.49 1010.32 1010.12 1009.88 1009.61 1009.32 1009.02 1008.74 1008.51 1008.33 1008.24 1008.23 1008.29 1008.42 1008.57 1008.73 1008.84 1008.90 1008.88 1008.78 1008.63 1008.46 1008.32 1008.26 1008.32 1008.54 1008.94 1009.52 1010.26 1011.10 1012.01 1012.92 1013.80 1014.62 1015.35 1016.00 1016.58 1017.11 1017.62 1018.12 1018.62 1019.11
1010.41 1010.27 1010.14 1010.01 1009.88 1009.73 1009.56 1009.36 1009.16 1008.96 1008.79 1008.67 1008.61 1008.61 1008.68 1008.80 1008.94 1009.08 1009.17 1009.21 1009.17 1009.06 1008.90 1008.73 1008.58 1008.52 1008.59 1008.80 1009.20 1009.76 1010.47 1011.29 1012.16 1013.05 1013.90 1014.68 1015.39 1016.01 1016.58 1017.09 1017.59 1018.08 1018.57 1019.06
1010.04 1009.88 1009.78 1009.71 1009.67 1009.63 1009.58 1009.51 1009.42 1009.33 1009.24 1009.17 1009.14 1009.14 1009.20 1009.28 1009.38 1009.47 1009.52 1009.52 1009.46 1009.34 1009.17 1009.01 1008.88 1008.83 1008.90 1009.12 1009.51 1010.06 1010.75 1011.53 1012.37 1013.22 1014.03 1014.78 1015.46 1016.07 1016.61 1017.12 1017.60 1018.09 1018.57 1019.06
1009.68 1009.53 1009.45 1009.46 1009.51 1009.60 1009.68 1009.75 1009.80 1009.81 1009.81 1009.79 1009.78 1009.79 1009.81 1009.84 1009.88 1009.91 1009.90 1009.86 1009.76 1009.62 1009.46 1009.31 1009.20 1009.17 1009.26 1009.50 1009.88 1010.42 1011.08 1011.84 1012.64 1013.44 1014.22 1014.94 1015.59 1016.17 1016.70 1017.19 1017.66 1018.13 1018.61 1019.10
1009.36 1009.21 1009.17 1009.25 1009.41 1009.62 1009.85 1010.07 1010.24 1010.37 1010.46 1010.50 1010.51 1010.50 1010.48 1010.46 1010.43 1010.38 1010.31 1010.22 1010.09 1009.94 1009.78 1009.65 1009.56 1009.56 1009.67 1009.92 1010.31 1010.83 1011.47 1012.19 1012.96 1013.72 1014.46 1015.14 1015.76 1016.32 1016.82 1017.30 1017.75 1018.21 1018.68 1019.15
1009.05 1008.91 1008.93 1009.09 1009.35 1009.68 1010.05 1010.40 1010.71 1010.95 1011.11 1011.21 1011.24 1011.22 1011.17 1011.09 1010.99 1010.88 1010.75 1010.61 1010.45 1010.29 1010.14 1010.02 1009.96 1009.98 1010.12 1010.38 1010.77 1011.28 1011.90 1012.59 1013.31 1014.04 1014.74 1015.39 1015.97 1016.50 1016.98 1017.43 1017.86 1018.29 1018.74 1019.19
Thickness
5734 5728 5720 5722 5724 5723 5719 5713 5709 5713 5720 5716 5716 5718 5724 5729 5726 5725 5727 5728 5727 5728 5731 5731 5730 5729 5728 5727 5727 5725 5723 5721 5719 5716 5714 5713 5711 5710 5709 5707 5706 5705 5705 5704
5723 5717 5722 5724 5723 5719 5715 5709 5708 5712 5717 5715 5714 5716 5724 5725 5723 5723 5724 5725 5726 5726 5726 5725 5725 5725 5725 5723 5723 5722 5720 5718 5716 5713 5713 5711 5710 5709 5707 5704 5703 5702 5702 5701
5715 5718 5722 5718 5714 5712 5711 5708 5706 5705 5710 5714 5710 5710 5716 5721 5721 5720 5720 5723 5724 5722 5722 5722 5721 5721 5720 5719 5718 5717 5716 5715 5712 5710 5709 5707 5705 5704 5703 5701 5700 5699 5698 5697
5715 5718 5715 5712 5711 5710 5704 5711 5708 5704 5701 5702 5704 5695 5710 5715 5714 5715 5715 5716 5718 5719 5719 5718 5717 5717 5716 5715 5715 5714 5713 5711 5709 5707 5705 5703 5701 5700 5700 5700 5698 5697 5695 5694
5709 5712 5709 5707 5709 5709 5706 5708 5706 5703 5701 5699 5703 5696 5705 5712 5707 5709 5712 5712 5714 5715 5715 5714 5714 5714 5713 5712 5710 5709 5709 5707 5705 5704 5701 5700 5699 5699 5698 5696 5695 5694 5693 5691
5709 5712 5711 5709 5710 5709 5706 5703 5701 5700 5699 5687 5696 5693 5695 5706 5705 5706 5708 5709 5710 5711 5711 5710 5710 5709 5708 5706 5704 5703 5702 5701 5700 5699 5698 5697 5696 5694 5693 5691 5691 5690 5690 5688
5699 5704 5708 5709 5701 5702 5701 5693 5683 5681 5681 5685 5694 5689 5695 5704 5705 5703 5703 5704 5707 5708 5708 5706 5704 5703 5702 5701 5699 5698 5697 5696 5695 5695 5695 5695 5693 5692 5690 5689 5687 5686 5686 5685
5689 5690 5700 5703 5700 5696 5696 5692 5677 5668 5673 5683 5688 5687 5698 5702 5703 5703 5702 5702 5702 5702 5703 5701 5700 5699 5698 5696 5695 5694 5693 5692 5691 5690 5691 5691 5690 5688 5687 5686 5684 5683 5682 5682
5688 5688 5697 5697 5699 5697 5690 5688 5690 5681 5678 5674 5685 5691 5696 5698 5696 5697 5697 5696 5696 5696 5696 5696 5696 5695 5694 5692 5691 5691 5689 5688 5687 5686 5685 5685 5685 5684 5683 5682 5681 5680 5679 5677
5691 5682 5689 5690 5693 5689 5691 5687 5680 5673 5664 5665 5677 5683 5686 5688 5688 5690 5691 5691 5691 5691 5691 5691 5691 5690 5690 5688 5687 5687 5685 5683 5682 5680 5680 5679 5679 5679 5678 5677 5676 5675 5674 5672
5686 5680 5680 5683 5681 5681 5679 5676 5676 5674 5672 5664 5664 5678 5692 5688 5687 5685 5686 5687 5686 5685 5685 5685 5685 5685 5684 5683 5682 5681 5679 5677 5676 5675 5674 5673 5673 5673 5673 5672 5671 5670 5669 5668
5679 5678 5674 5678 5681 5680 5680 5678 5674 5663 5664 5666 5664 5673 5687 5685 5684 5681 5681 5682 5681 5680 5680 5679 5678 5677 5676 5675 5675 5674 5673 5671 5670 5669 5668 5667 5667 5667 5666 5666 5665 5664 5663 5662
5671 5670 5664 5666 5668 5670 5670 5670 5670 5668 5664 5662 5659 5669 5680 5678 5677 5676 5675 5675 5674 5674 5673 5672 5671 5670 5669 5668 5668 5667 5666 5665 5663 5662 5661 5661 5661 5660 5659 5659 5659 5658 5657 5655
5668 5668 5664 5659 5665 5667 5663 5662 5663 5661 5657 5660 5664 5668 5669 5668 5668 5668 5668 5668 5667 5667 5666 5665 5664 5663 5662 5661 5660 5659 5658 5658 5656 5655 5654 5654 5654 5653 5652 5651 5651 5650 5650 5648
5663 5661 5663 5663 5662 5660 5659 5658 5658 5657 5660 5657 5663 5663 5664 5665 5664 5663 5662 5661 5659 5659 5658 5657 5656 5655 5654 5653 5652 5651 5650 5649 5649 5648 5647 5647 5647 5646 5644 5643 5642 5642 5641 5640
5657 5653 5654 5652 5654 5653 5652 5655 5655 5653 5654 5654 5655 5655 5663 5661 5660 5657 5656 5654 5652 5650 5650 5650 5649 5648 5646 5645 5644 5643 5642 5641 5641 5640 5640 5639 5638 5637 5636 5635 5634 5633 5632 5631
5650 5648 5643 5646 5647 5644 5644 5656 5653 5651 5652 5651 5649 5653 5654 5650 5648 5648 5648 5646 5644 5643 5642 5642 5641 5640 5639 5637 5636 5635 5634 5633 5633 5633 5632 5631 5630 5628 5627 5626 5625 5624 5624 5622
5645 5641 5639 5638 5636 5628 5652 5655 5652 5646 5646 5647 5646 5646 5644 5643 5641 5642 5641 5639 5637 5635 5634 5634 5633 5631 5630 5629 5628 5627 5626 5626 5625 5624 5624 5623 5621 5620 5619 5617 5616 5616 5616 5614
5640 5636 5631 5630 5629 5637 5645 5646 5643 5640 5640 5643 5640 5639 5636 5634 5634 5635 5634 5631 5629 5627 5626 5625 5623 5623 5621 5620 5619 5618 5618 5617 5616 5615 5614 5614 5612 5611 5609 5608 5608 5608 5607 5606
5629 5630 5627 5623 5618 5623 5639 5640 5640 5635 5631 5637 5634 5631 5628 5626 5625 5628 5625 5621 5619 5618 5616 5615 5614 5613 5612 5611 5610 5609 5609 5608 5607 5605 5604 5604 5603 5602 5601 5600 5600 5599 5598 5597
5621 5619 5619 5619 5618 5628 5634 5631 5629 5620 5626 5629 5628 5626 5622 5620 5620 5618 5615 5613 5610 5608 5607 5606 5605 5604 5603 5602 5601 5600 5599 5598 5597 5596 5595 5594 5593 5593 5592 5591 5590 5589 5589 5587
5624 5619 5617 5617 5613 5619 5625 5622 5619 5622 5623 5622 5620 5618 5615 5612 5610 5607 5605 5603 5601 5599 5598 5597 5596 5595 5594 5592 5591 5591 5590 5589 5587 5586 5585 5585 5584 5583 5582 5581 5580 5579 5578 5577
5618 5620 5620 5618 5618 5619 5617 5617 5615 5615 5614 5613 5611 5608 5604 5601 5599 5597 5595 5593 5591 5590 5588 5587 5586 5585 5585 5584 5583 5582 5581 5580 5578 5578 5576 5575 5574 5573 5572 5571 5570 5569 5568 5567
5611 5606 5607 5609 5612 5610 5608 5607 5605 5605 5604 5602 5600 5598 5595 5593 5590 5587 5585 5583 5581 5580 5578 5577 5576 5576 5576 5575 5574 5573 5572 5570 5570 5569 5568 5567 5566 5565 5564 5562 5561 5559 5558 5557
5603 5598 5600 5603 5604 5601 5600 5598 5597 5595 5593 5591 5590 5588 5586 5584 5581 5579 5577 5574 5572 5570 5568 5568 5567 5566 5566 5566 5565 5564 5562 5561 5561 5560 5559 5558 5557 5556 5556 5555 5552 5550 5549 5547
5596 5594 5593 5596 5599 5596 5595 5593 5589 5586 5584 5583 5581 5579 5577 5575 5572 5570 5567 5565 5563 5560 5558 5557 5557 5556 5556 5556 5556 5554 5552 5552 5552 5551 5550 5549 5548 5547 5547 5546 5543 5540 5538 5537